Location: Cuzcurrita-R�o Tir�n
(42.5415°N, 2.9642°W)
Time: 21:57:46
(UTC+00:00)

CZ-4 R/B - Pass Details

Date: 17 January 2021
Orbit: 531 x 599 km, 97.7° (Epoch: 03 March)

Event Time Altitude Azimuth Distance (km) Brightness Sun altitude
Rises 19:23:56 0° 188° (S) 2,816 5.1 -24.9°
Reaches altitude 10° 19:26:16 10° 198° (SSW) 1,912 4.3 -25.3°
Maximum altitude 19:30:01 33° 263° (W) 999 3.2 -26.0°
Drops below altitude 10° 19:33:45 10° 328° (NNW) 1,894 4.4 -26.7°
Sets 19:36:03 0° 338° (NNW) 2,785 5.1 -27.1°
